This demonstration page uses our WeatherBlox Daily Observations layout. Learn more.

Left ArrowRight Arrow

Hourly Observations for December 29, 2021

Temp ( °F °C ) Dew Point ( °F °C ) Humidity (%) Winds ( mph kmh ) Pressure ( in mb ) Visibility ( mi km ) Precip ( " mm )
12:59 am 00:59 Mostly Cloudy 61 16.1 59 15 93 93 S 12 19 29.79 1009 9 14 0.00 0.00
1:59 am 01:59 Partly Cloudy 62 16.7 60 15.6 93 93 SSW 15 24 29.80 1009 9 14 0.00 0.00
2:59 am 02:59 Partly Cloudy 63 17.2 61 16.1 93 93 SSW 14 22 29.80 1009 10 16 0.00 0.00
3:59 am 03:59 Partly Cloudy 64 17.8 61 16.1 90 90 SSW 14 22 29.79 1009 10 16 0.00 0.00
4:59 am 04:59 Partly Cloudy 64 17.8 61 16.1 90 90 SSW 12 19 29.79 1009 10 16 0.00 0.00
5:59 am 05:59 Partly Cloudy 65 18.3 61 16.1 87 87 SW 10 17 29.81 1010 10 16 0.00 0.00
6:59 am 06:59 Clear 65 18.3 62 16.7 90 90 SW 12 19 29.83 1010 10 16 0.00 0.00
7:59 am 07:59 Mostly Cloudy 65 18.3 62 16.7 90 90 SW 9 15 29.85 1011 10 16 0.00 0.00
8:59 am 08:59 Mostly Cloudy 68 20 63 17.2 84 84 WSW 14 22 29.87 1012 10 16 0.00 0.00
9:06 am 09:06 Mostly Cloudy 68 20 63 17.2 84 84 WSW 13 20 29.88 1012 10 16 0.00 0.00
9:44 am 09:44 Cloudy 69 20.6 63 17.2 81 81 WSW 13 20 29.89 1012 10 16 0.00 0.00
9:59 am 09:59 Cloudy 69 20.6 64 17.8 84 84 WSW 9 15 29.88 1012 10 16 0.00 0.00
10:59 am 10:59 Cloudy 71 21.7 64 17.8 79 79 WSW 9 15 29.88 1012 10 16 0.00 0.00
11:59 am 11:59 Mostly Cloudy 71 21.7 64 17.8 79 79 W 7 11 29.87 1012 10 16 0.00 0.00
12:59 pm 12:59 Cloudy 71 21.7 64 17.8 79 79 W 6 9 29.85 1011 10 16 0.00 0.00
1:59 pm 13:59 Cloudy 71 21.7 64 17.8 79 79 WSW 5 7 29.85 1011 10 16 0.00 0.00
2:59 pm 14:59 Cloudy 71 21.7 65 18.3 81 81 Calm 29.86 1011 10 16 0.00 0.00
3:59 pm 15:59 Cloudy 71 21.7 65 18.3 81 81 SSW 3 6 29.87 1012 10 16 0.00 0.00
4:59 pm 16:59 Cloudy 70 21.1 65 18.3 84 84 S 5 7 29.88 1012 10 16 0.00 0.00
5:59 pm 17:59 Cloudy 69 20.6 65 18.3 87 87 SSE 3 6 29.88 1012 10 16 0.00 0.00
6:59 pm 18:59 Cloudy 70 21.1 65 18.3 84 84 S 6 9 29.88 1012 10 16 0.00 0.00
7:59 pm 19:59 Cloudy 69 20.6 65 18.3 87 87 SSE 5 7 29.87 1012 10 16 0.00 0.00
8:59 pm 20:59 Cloudy 69 20.6 65 18.3 87 87 S 5 7 29.87 1012 9 14 0.00 0.00
9:59 pm 21:59 Cloudy with Light Rain 60 15.6 60 15.6 100 100 ENE 7 11 29.88 1012 5 8 0.01 0.25
10:14 pm 22:14 Cloudy with Light Rain 59 15 59 15 100 100 NE 5 7 29.88 1012 2 3 0.01 0.25
10:33 pm 22:33 Cloudy with Light Rain 57 13.9 57 13.9 100 100 NE 7 11 29.88 1012 3 5 0.02 0.51
10:43 pm 22:43 Cloudy with Mist and Fog 55 12.8 55 12.8 100 100 N 12 19 29.89 1012 3 5 0.02 0.51
10:47 pm 22:47 Cloudy with Mist and Fog 55 12.8 55 12.8 100 100 N 14 22 29.89 1012 3 5 0.02 0.51
10:59 pm 22:59 Cloudy with Light Rain 53 11.7 53 11.7 100 100 NNE 14 22 29.89 1012 4 6 0.02 0.51
11:44 pm 23:44 Cloudy with Light Rain 53 11.7 53 11.7 100 100 E 3 6 29.88 1012 3 4 0.03 0.76
11:59 pm 23:59 Cloudy with Light Rain 54 12.2 54 12.2 100 100 ENE 8 13 29.87 1012 3 5 0.04 1.02

Powered by AerisWeather